Find Starlink 3207

NORAD ID: 49756 Int'l Des: 2021-115 Owner: SPXS Country: US Constellation: starlink operational
LEOCIRCULAR

Live Position

Loading 3D Globe...

About Starlink 3207

Description loading...

Upcoming Passes

Passes for default location (London). Set your location on the main map for personalized predictions.

Altitude History

Loading altitude history...

Two-Line Element Set

1 49756U 21115AJ 26125.58730600 .00002298 00000-0 16242-3 0 9995
2 49756 53.2168 243.6979 0001220 87.9018 272.2114 15.08835429244268
Epoch: May 5, 2026 • Age: 20 hours

Current Status

Altitude 544.4 km
Velocity 7.60 km/s
Sub-Earth Point 48.42°N, 6.1°W
Launch Date Dec 2, 2021
Age 4.4 years
Type internet

Technical Details

Classification Payload
Mass 290.00 kg
Dry Mass 270.00 kg
Total Mass 290.00 kg
Length 0.20 m
Diameter 2.80 m
Span 9.00 m
Shape Box + pan
Manufacturer SPXS
Bus Type Starlink
Phase Status In Orbit
Owner/State SPXS/US

Most Searched